Flag for Moldova Weather past 2 weeks in Tiraspol, Moldova

Now
34 °F

Passing clouds.


Feels Like: 29 °F
Forecast: 32 / 60 °F
Wind: 6 mph from Northwest

Location: Chisinau International Airport

Current Time: Apr 22, 2015 at 3:30:03 AM

Latest Report: Apr 22, 2015 at 3:00 AM


Visibility: N/A

Pressure: 30.01 "Hg

Humidity: 87%

Dew point: 30 °F

Location of TiraspolLocation

Historic Weather in Tiraspol — Graph

°F

Tiraspol temperature yesterday

Maximum temperature yesterday: 48 °F (at 12:00 PM)
Minimum temperature yesterday: 37 °F (at 6:00 AM)
Average temperature yesterday: 42 °F

Past Weeks' High & Low Weather Summary

 TemperatureHumidityPressure
High77 °F (Apr 17, 4:00 PM)93% (Apr 22, 2:30 AM)30.36 "Hg (Apr 22, 2:30 AM)
Low34 °F (Apr 22, 1:30 AM)13% (Apr 12, 5:30 PM)29.65 "Hg (Apr 17, 7:30 PM)
Average51 °F50%29.99 "Hg
* Reported Apr 7 2:00 AM — Apr 22 2:30 AM, Tiraspol, Weather by CustomWeather, © 2015

Note: Actual official high and low records may vary slightly from our data, if they occured in-between our weather recording intervals... More about our weather records

Advertising

Tiraspol weather history for previous 24 hours

 ConditionsComfort  
Time TempWeatherWind HumidityBarometerVisibility
2:30 AM
Wed, Apr 22
34 °FPassing clouds.5 mph93%30.01 "HgN/A
2:00 AM34 °FPassing clouds.7 mph87%30.01 "HgN/A
1:30 AM34 °FPassing clouds.6 mph87%30.01 "HgN/A
1:00 AM36 °FPassing clouds.2 mph87%30.01 "HgN/A
12:00 AM37 °FPassing clouds.2 mph81%30.01 "HgN/A
11:30 PM
Tue, Apr 21
37 °FSprinkles. Partly cloudy.6 mph81%30.01 "HgN/A
11:00 PM41 °FPassing clouds.8 mph76%29.98 "HgN/A
10:30 PM41 °FPassing clouds.9 mph76%29.98 "HgN/A
10:00 PM43 °FPassing clouds.10 mph66%29.98 "HgN/A
9:30 PM41 °FPassing clouds.9 mph66%29.98 "HgN/A
9:00 PM43 °FPassing clouds.3 mph61%29.98 "HgN/A
8:30 PM43 °FScattered clouds.6 mph61%29.95 "HgN/A
8:00 PM43 °FScattered clouds.6 mph61%29.95 "HgN/A
7:30 PM45 °FSprinkles. Partly sunny.12 mph57%29.95 "HgN/A
7:00 PM45 °FPartly sunny.10 mph49%29.95 "HgN/A
6:30 PM45 °FScattered clouds.8 mph53%29.92 "HgN/A
6:00 PM46 °FPartly sunny.14 mph46%29.92 "HgN/A
5:30 PM46 °FScattered clouds.9 mph50%29.92 "HgN/A
5:00 PM46 °FScattered clouds.14 mph50%29.92 "HgN/A
4:30 PM46 °FPartly sunny.10 mph62%29.92 "HgN/A
4:00 PM45 °FBroken clouds.12 mph71%29.92 "HgN/A
3:30 PM46 °FSprinkles. More clouds than sun.20 mph53%29.92 "HgN/A
3:00 PM46 °FPartly sunny.12 mph62%29.92 "HgN/A
2:30 PM39 °FPartly sunny.2 mph87%29.92 "HgN/A
2:00 PM39 °FSprinkles. Mostly cloudy.14 mph75%29.95 "Hg6 mi
1:30 PM45 °FPartly sunny.9 mph66%29.92 "HgN/A
1:00 PM41 °FSprinkles. Mostly cloudy.21 mph76%29.92 "HgN/A
12:30 PM46 °FPartly sunny.13 mph46%29.92 "HgN/A
12:00 PM48 °FPartly sunny.12 mph40%29.92 "HgN/A
11:30 AM46 °FPartly sunny.12 mph43%29.92 "HgN/A
11:00 AM46 °FPartly sunny.12 mph43%29.92 "HgN/A
10:30 AM45 °FScattered clouds.10 mph53%29.92 "HgN/A
10:00 AM45 °FScattered clouds.9 mph61%29.92 "HgN/A
9:30 AM43 °FScattered clouds.9 mph66%29.92 "HgN/A
9:00 AM41 °FPassing clouds.10 mph70%29.92 "HgN/A
8:30 AM39 °FPassing clouds.13 mph75%29.89 "HgN/A
8:00 AM39 °FSunny.10 mph75%29.89 "Hg10 mi
7:30 AM37 °FSunny.8 mph81%29.89 "Hg10 mi
7:00 AM37 °FPassing clouds.8 mph81%29.89 "HgN/A
6:30 AM37 °FPassing clouds.10 mph81%29.86 "HgN/A
6:00 AM37 °FPassing clouds.12 mph81%29.86 "HgN/A
5:30 AM39 °FPassing clouds.9 mph81%29.86 "HgN/A
5:00 AM39 °FPassing clouds.7 mph81%29.86 "HgN/A
4:30 AM39 °FLight rain. Mostly cloudy.8 mph87%29.86 "HgN/A
4:00 AM39 °FLight rain. Mostly cloudy.7 mph87%29.86 "HgN/A
3:30 AM39 °FPassing clouds.8 mph87%29.83 "HgN/A
3:00 AM39 °FPassing clouds.7 mph87%29.83 "HgN/A
Weather by CustomWeather, © 2015

See weather overviewHow to use our weather pages